Regional Weather Roundup
Issued by NWS

Home | Current Version | Previous Version | Text Only | Print | Product List | Glossary Off
Versions: 1 2 3 4 5 6 7 8 9 10 11 12 13 14 15 16 17 18 19 20 21 22 23 24 25 26 27 28 29 30 31 32 33 34 35 36 37 38 39 40 41 42 43 44 45 46 47 48 49 50

000
ASUS43 KIND 081109
RWRIN

WEATHER ROUNDUP FOR INDIANA
NATIONAL WEATHER SERVICE INDIANAPOLIS IN
600 AM EST THU DEC 08 2016

NOTE: "FAIR" INDICATES FEW OR NO CLOUDS BELOW 12,000 FEET WITH NO
SIGNIFICANT WEATHER AND/OR OBSTRUCTIONS TO VISIBILITY.

* - STATION DOES NOT REPORT WEATHER SUCH AS PRECIPITATION OR FOG.

+ - STATION NOT QUALITY CONTROLLED BY THE NATIONAL WEATHER SERVICE.
    USE DATA WITH CAUTION...ESPECIALLY DEWPOINT AND RELATIVE
    HUMIDITY OBSERVATIONS.

INZ001>003-010>013-019-020-081200-
NORTHWEST INDIANA

CITY           SKY/WX    TMP DP  RH WIND       PRES   REMARKS
GARY /AIRPORT/ CLOUDY    23  16  74 W14       30.19R WCI  11
KNOX *+        CLOUDY    23   0  36 W21       30.17S WCI   8
LA PORTE +     CLOUDY    22  14  71 W16G23    30.16R WCI   8
MICHIGAN CITY+ LGT SNOW  23  18  80 W10G24    30.16R WCI  12
MONTICELLO +   CLOUDY    22  12  65 W14G24    30.21R WCI   9
RENSSELAER +     N/A     23  18  80 W16G28    30.21R WCI  10
VALPARAISO     FLURRIES  22  14  71 W18G29    30.18R WCI   7

$$

LMZ046-743>745-081200-
SOUTHERN LAKE MICHIGAN

STATION/POSITION TIME  TEMP    WIND        PRES    WAVE
                       AIR SEA DIR/SP/G            HT
                 (UTC) (F)     (DEG/KT/KT) (MB)    (FT)
BURNS HARBOR     1040   25     270/ 22/ 26 1021.7S
MICHIGAN CITY    1040   25     230/ 28/ 34   N/A

$$

INZ004-005-014>016-021>024-081200-
NORTH CENTRAL INDIANA

CITY           SKY/WX    TMP DP  RH WIND       PRES   REMARKS
GOSHEN         CLOUDY    24  14  65 W18       30.12S WCI  10
LOGANSPORT +   CLOUDY    25  18  74 W18G26    30.20S WCI  11
PERU/GRISSOM   CLOUDY    24  16  73 W16       30.16R WCI  10
ROCHESTER +    MOCLDY    27  19  74 W14G22    30.16S WCI  15
SOUTH BEND     FLURRIES  22  15  75 W16G29    30.13R WCI   8
WARSAW +       FLURRIES  23  12  63 W18G28    30.14R WCI   9

$$

INZ006>009-017-018-025>027-081200-
NORTHEAST INDIANA

CITY           SKY/WX    TMP DP  RH WIND       PRES   REMARKS
ANGOLA *+      CLOUDY    23  18  80 W12       30.06S WCI  12
AUBURN +       FLURRIES  25  16  68 W12G17    30.12R WCI  14
FORT WAYNE     CLOUDY    24  16  71 W21       30.14R WCI   9
HUNTINGTON +   CLOUDY    24  15  69 W18G29    30.15S WCI   9
KENDALLVILLE + FLURRIES  23  17  76 W15G29    30.09S WCI  10

$$

INZ028-029-035-036-043>045-051>053-081200-
WEST CENTRAL INDIANA

CITY           SKY/WX    TMP DP  RH WIND       PRES   REMARKS
CRAWFORDSVL +  PTCLDY    19  14  79 W13       30.25R WCI   7
GREENCASTLE +  PTCLDY    21  16  79 W8        30.27R WCI  12
LAFAYETTE      MOCLDY    20  14  77 W14       30.24R WCI   7
TERRE HAUTE    CLEAR     22  13  68 W10       30.31R WCI  11

$$

INZ030>032-037>040-046>048-054>057-064-065-081200-
CENTRAL INDIANA

CITY           SKY/WX    TMP DP  RH WIND       PRES   REMARKS
CP ATTERBURY + CLEAR     27  18  69 NW14G20   30.26R WCI  15
FRANKFORT +    CLOUDY    25  17  72 W22       30.23R WCI  10
GREENWOOD *+   PTCLDY    24  16  71 W7G20     30.24R WCI  16
INDIANAPOLIS   MOCLDY    23  14  68 W20       30.25R WCI   8
-EAGLE CREEK   CLOUDY    24  14  65 W14G21    30.23R WCI  12
KOKOMO +       FLURRIES  24  17  74 W22       30.19R WCI   9
MARION +       CLOUDY    23  17  77 W20G25    30.19R WCI   9
MT COMFORT *+  CLOUDY    25  16  68 W17       30.22R WCI  11
SHELBYVILLE    MOCLDY    24  14  65 W15       30.22R WCI  11
ZIONSVILLE +   CLOUDY    22  15  74 W12G21    30.23R WCI  11

$$

INZ033-034-041-042-049-050-058-059-081200-
EAST CENTRAL INDIANA

CITY           SKY/WX    TMP DP  RH WIND       PRES   REMARKS
MUNCIE         CLOUDY    24  15  68 W16G26    30.19R WCI  11

$$

INZ060-061-067>069-081>083-085>088-081200-
SOUTHWEST INDIANA

CITY           SKY/WX    TMP DP  RH WIND       PRES   REMARKS
EVANSVILLE     MOCLDY    28  17  63 NW14G23   30.36R WCI  17
HUNTINGBURG *+ CLOUDY    27  19  72 NW13      30.33R WCI  16
WASHINGTON +   PTCLDY    27  20  75 W9G17     30.33R WCI  18

$$

INZ062-063-066-070>080-084-089>092-081200-
SOUTH CENTRAL AND SOUTHEAST INDIANA

CITY           SKY/WX    TMP DP  RH WIND       PRES   REMARKS
BLOOMINGTON    CLEAR     24  13  62 W10       30.27R WCI  14
MADISON *+     PTCLDY    28  18  64 W6        30.26R WCI  22
NORTH VERNON + PTCLDY    28  23  80 W10       30.25R WCI  19
SEYMOUR +      PTCLDY    27  18  69 NW7       30.27R WCI  19

$$




USA.gov is the U.S. government's official web portal to all federal, state and local government web resources and services.